Location: Eaton Estates
(41.3089°N, 82.0057°W)
Time: 17:00:09
(UTC+00:00)

Lacrosse 5 - Pass Details

Date: 17 June 2021
Orbit: 715 x 724 km, 57.0° (Epoch: 28 July)

Event Time Altitude Azimuth Distance (km) Brightness Sun altitude
Rises 03:45:28 0° 302° (WNW) 3,125 6.1 -21.0°
Reaches altitude 10° 03:48:21 10° 286° (WNW) 2,202 4.9 -21.2°
Maximum altitude 03:52:02 21° 239° (WSW) 1,600 3.6 -21.5°
Enters shadow 03:52:58 20° 224° (SW) 1,644 3.5 -21.6°
